Stations météo

réclame
Mon MeteoGroup
Meierwik, Allemagne (10033): Température de l'air & dewpoint: 15.10.2017 12:00:00 - 21.10.2017 12:00:00 (CEST)Meierwik, Allemagne (10033): Vitesse du vent & gusts: 15.10.2017 12:00:00 - 21.10.2017 12:00:00 (CEST)Meierwik, Allemagne (10033): Direction du vent: 15.10.2017 12:00:00 - 21.10.2017 12:00:00 (CEST)Meierwik, Allemagne (10033): reduced air pressure: 15.10.2017 12:00:00 - 21.10.2017 12:00:00 (CEST)Meierwik, Allemagne (10033): visibility: 15.10.2017 12:00:00 - 21.10.2017 12:00:00 (CEST)
Date & Time tt [°C] td [°C] ff [km/h] ff [knt] fx [km/h] fx [knt] dd ppp [hPa] vv [km]
21.10.2017 12:00:00 12,0 10,6 11 6 - - S 1011,5 -
21.10.2017 11:00:00 12,0 10,9 11 6 - - SSE 1011,6 -
21.10.2017 10:00:00 11,8 11,1 14 8 - - SSE 1011,4 -
21.10.2017 09:00:00 11,4 10,8 14 8 - - S 1011,4 -
21.10.2017 08:00:00 11,3 10,6 14 8 - - SSE 1010,9 -
21.10.2017 07:00:00 11,5 10,7 14 8 - - S 1010,9 -
21.10.2017 06:00:00 11,6 10,8 18 10 - - S 1010,5 -
21.10.2017 05:00:00 11,7 11,0 14 8 - - SSE 1010,6 -
21.10.2017 04:00:00 11,7 11,1 11 6 - - S 1010,4 -
21.10.2017 03:00:00 11,4 10,8 14 8 - - SSE 1010,4 -
21.10.2017 02:00:00 11,1 10,5 14 8 - - SSE 1010,4 -
21.10.2017 01:00:00 11,0 10,3 14 8 - - S 1010,2 -
21.10.2017 00:00:00 11,3 10,5 14 8 - - S 1010,1 -
20.10.2017 23:00:00 11,7 10,8 18 10 - - S 1010,1 -
20.10.2017 22:00:00 12,0 10,6 18 10 - - SW 1010,1 -
20.10.2017 21:00:00 13,1 12,3 18 10 - - S 1009,5 -
20.10.2017 20:00:00 13,3 12,5 14 8 - - S 1009,1 -
20.10.2017 19:00:00 13,3 12,5 18 10 - - SSE 1009,1 -
20.10.2017 18:00:00 13,3 12,5 18 10 - - SSE 1008,7 6
20.10.2017 17:00:00 13,7 12,8 18 10 - - SSE 1008,7 7
20.10.2017 16:00:00 13,7 12,7 18 10 - - SSE 1008,8 8
20.10.2017 15:00:00 14,3 12,5 25 14 - - SSE 1008,8 8
20.10.2017 14:00:00 13,5 12,6 22 12 - - SE 1009,5 6
20.10.2017 13:00:00 13,2 12,1 14 8 - - SE 1010,3 5
20.10.2017 12:00:00 13,3 11,9 11 6 - - S 1010,5 4,5
20.10.2017 11:00:00 13,0 11,9 11 6 - - SSE 1009,6 3,0
20.10.2017 10:00:00 12,4 11,6 18 10 - - SE 1009,4 2,5
20.10.2017 09:00:00 12,0 11,4 18 10 - - SE 1009,1 1,6
20.10.2017 08:00:00 12,0 11,3 14 8 - - SE 1009,4 1,0
20.10.2017 07:00:00 12,2 11,6 18 10 - - SE 1009,4 0,8
20.10.2017 06:00:00 12,3 11,7 14 8 - - SE 1009,8 -
20.10.2017 05:00:00 12,4 11,6 14 8 - - SE 1010,0 -
20.10.2017 04:00:00 12,6 11,8 18 10 - - SSE 1010,4 -
20.10.2017 03:00:00 12,7 11,9 18 10 - - SE 1010,4 -
20.10.2017 02:00:00 12,3 11,6 22 12 - - SE 1010,8 -
20.10.2017 01:00:00 12,0 11,2 22 12 - - SE 1011,0 -
20.10.2017 00:00:00 12,1 11,2 25 14 - - ESE 1011,5 -
19.10.2017 23:00:00 12,3 11,4 25 14 - - SE 1012,1 -
19.10.2017 22:00:00 12,5 11,4 22 12 - - SE 1012,3 -
19.10.2017 21:00:00 12,9 11,6 25 14 - - SE 1012,4 -
19.10.2017 20:00:00 12,8 11,4 22 12 - - ESE 1012,5 -
19.10.2017 19:00:00 13,0 11,4 25 14 - - SE 1012,7 -
19.10.2017 18:00:00 13,2 11,6 25 14 - - SE 1012,8 8
19.10.2017 17:00:00 13,6 11,7 21 11 - - SE 1013,1 8
19.10.2017 16:00:00 14,0 11,5 22 12 - - ESE 1013,1 12
19.10.2017 15:00:00 14,4 11,8 14 8 - - SE 1013,5 12
19.10.2017 14:00:00 14,9 12,3 14 8 - - ESE 1013,9 12
19.10.2017 13:00:00 15,5 12,2 22 12 - - SE 1014,0 12
19.10.2017 12:00:00 14,9 12,1 11 6 - - SE 1014,2 10
19.10.2017 11:00:00 13,5 11,5 14 8 - - SE 1014,4 10
19.10.2017 10:00:00 12,9 11,3 14 8 - - ESE 1014,5 10
19.10.2017 09:00:00 12,5 11,4 22 12 - - ESE 1014,1 9
19.10.2017 08:00:00 12,3 11,4 13 7 - - SE 1014,4 7
19.10.2017 07:00:00 12,4 11,5 14 8 - - SE 1014,3 18
19.10.2017 06:00:00 12,3 11,3 14 8 - - ESE 1014,5 18
19.10.2017 05:00:00 11,6 10,5 14 8 - - ESE 1014,7 18
19.10.2017 04:00:00 11,1 10,0 18 10 - - ESE 1014,7 18
19.10.2017 03:00:00 11,4 10,3 14 8 - - ENE 1015,1 18
19.10.2017 02:00:00 12,7 12,1 11 6 - - E 1015,3 18
19.10.2017 01:00:00 12,4 11,8 11 6 - - ESE 1015,1 18
19.10.2017 00:00:00 12,4 11,7 11 6 - - ESE 1015,2 18
18.10.2017 23:00:00 12,7 11,5 7 4 - - E 1015,5 12
18.10.2017 22:00:00 12,8 11,7 11 6 - - E 1015,1 18
18.10.2017 21:00:00 13,1 11,5 11 6 - - E 1015,0 18
18.10.2017 20:00:00 13,1 11,6 14 8 - - NE 1015,0 18
18.10.2017 19:00:00 13,3 11,5 11 6 - - ENE 1014,7 18
18.10.2017 18:00:00 13,9 11,3 7 4 - - E 1014,6 20
18.10.2017 17:00:00 14,5 11,7 4 2 - - ENE 1014,8 20
18.10.2017 16:00:00 15,2 11,0 4 2 - - WNW 1014,7 20
18.10.2017 15:00:00 15,2 10,2 4 2 - - W 1014,7 20
18.10.2017 14:00:00 15,2 10,6 7 4 - - W 1015,0 20
18.10.2017 13:00:00 14,4 11,1 11 6 - - W 1015,2 20
18.10.2017 12:00:00 14,1 10,6 11 6 - - WSW 1015,2 18
18.10.2017 11:00:00 14,0 10,6 14 8 - - SW 1014,8 18
18.10.2017 10:00:00 12,7 10,0 18 10 - - SW 1014,9 18
18.10.2017 09:00:00 11,8 9,5 18 10 - - SW 1014,7 18
18.10.2017 08:00:00 11,6 9,2 22 12 - - SSW 1014,3 18
18.10.2017 07:00:00 11,4 9,1 22 12 - - SSW 1014,4 20
18.10.2017 06:00:00 11,5 9,1 22 12 - - SSW 1014,4 20
18.10.2017 05:00:00 11,4 9,1 22 12 - - SSW 1014,4 20
18.10.2017 04:00:00 12,0 9,1 18 10 - - SSW 1014,4 20
18.10.2017 03:00:00 12,1 9,4 22 12 - - SSW 1014,5 20
18.10.2017 02:00:00 12,2 9,2 22 12 - - SSW 1014,6 20
18.10.2017 01:00:00 12,4 9,4 29 16 - - SSW 1014,7 15
18.10.2017 00:00:00 12,7 9,3 25 14 50 27 SSW 1014,8 15
17.10.2017 23:00:00 12,8 9,4 29 16 - - SSW 1015,1 15
17.10.2017 22:00:00 12,9 9,7 25 14 47 25 SW 1014,9 15
17.10.2017 21:00:00 13,2 9,6 32 18 47 25 SSW 1015,1 15
17.10.2017 20:00:00 13,3 10,1 32 18 - - SW 1015,3 15
17.10.2017 19:00:00 13,5 9,8 36 19 58 31 SW 1015,2 15
17.10.2017 18:00:00 14,0 10,0 35 19 61 33 SSW 1015,3 10
17.10.2017 17:00:00 14,3 10,0 40 21 - - SSW 1015,4 12
17.10.2017 16:00:00 14,7 9,9 36 19 61 33 SSW 1015,9 12
17.10.2017 15:00:00 15,0 10,2 40 21 61 33 SSW 1016,3 12
17.10.2017 14:00:00 14,8 10,5 40 21 - - SW 1016,5 12
17.10.2017 13:00:00 14,9 10,2 29 16 61 33 SW 1017,0 12
17.10.2017 12:00:00 14,9 11,2 32 18 58 31 SW 1017,0 10
17.10.2017 11:00:00 14,4 10,3 32 18 - - SW 1016,9 10
17.10.2017 10:00:00 14,4 11,2 25 14 50 27 SW 1016,9 10
17.10.2017 09:00:00 14,5 11,6 25 14 50 27 SW 1016,6 10
17.10.2017 08:00:00 14,5 11,2 25 14 - - SSW 1016,5 10
17.10.2017 07:00:00 15,1 11,1 29 16 47 25 SSW 1016,3 20
17.10.2017 06:00:00 16,0 11,6 29 16 50 27 S 1016,3 20
17.10.2017 05:00:00 16,4 13,1 25 14 - - S 1016,2 20
17.10.2017 04:00:00 17,1 14,0 25 14 - - S 1016,6 10
17.10.2017 03:00:00 16,9 13,8 29 16 47 25 S 1017,0 10
17.10.2017 02:00:00 17,1 14,1 29 16 - - S 1017,0 7
17.10.2017 01:00:00 16,7 14,2 25 14 - - S 1017,0 6
17.10.2017 00:00:00 15,2 14,8 14 8 - - SSE 1017,5 5
16.10.2017 23:00:00 13,3 12,7 11 6 - - SSE 1017,7 5
16.10.2017 22:00:00 13,3 12,7 14 8 - - S 1018,1 5
16.10.2017 21:00:00 14,1 13,4 18 10 - - - 1018,2 5
16.10.2017 20:00:00 14,6 13,8 18 10 - - NNE 1018,5 5
16.10.2017 19:00:00 14,7 13,9 14 8 - - SSE 1019,0 5
16.10.2017 18:00:00 16,4 14,3 11 6 - - SSE 1019,0 6
16.10.2017 17:00:00 17,2 14,6 11 6 - - S 1019,3 4,5
16.10.2017 16:00:00 16,9 14,2 7 4 - - S 1019,4 6
16.10.2017 15:00:00 16,0 13,8 8 4 - - S 1019,8 6
16.10.2017 14:00:00 15,4 13,4 7 4 - - SW 1020,0 4,0
16.10.2017 13:00:00 15,6 13,8 11 6 - - SSW 1020,1 4,0
16.10.2017 12:00:00 15,4 13,6 22 12 - - SW 1020,0 4,5
16.10.2017 11:00:00 15,4 13,6 25 14 - - SW 1019,4 4,5
16.10.2017 10:00:00 15,3 13,5 16 9 - - SSW 1018,8 4,2
16.10.2017 09:00:00 14,8 13,3 18 10 - - SSW 1018,4 4,0
16.10.2017 08:00:00 14,5 13,1 18 10 - - SW 1018,1 5
16.10.2017 07:00:00 14,0 12,6 18 10 - - SSW 1018,0 7
16.10.2017 06:00:00 13,4 12,3 14 8 - - - 1017,8 -
16.10.2017 05:00:00 13,8 12,2 14 8 - - - 1017,7 -
16.10.2017 04:00:00 14,3 12,2 18 10 - - - 1017,7 -
16.10.2017 03:00:00 14,8 12,3 18 10 - - - 1018,1 -
16.10.2017 02:00:00 15,5 12,3 22 12 - - - 1018,3 -
16.10.2017 01:00:00 15,3 12,2 18 10 - - - 1018,4 -
16.10.2017 00:00:00 15,4 12,7 25 14 - - - 1018,6 -
15.10.2017 23:00:00 16,1 12,9 25 14 - - - 1018,5 -
15.10.2017 22:00:00 16,5 13,3 29 16 54 29 - 1018,3 -
15.10.2017 21:00:00 16,9 13,8 32 18 50 27 - 1018,5 -
15.10.2017 20:00:00 16,7 14,5 22 12 - - - 1019,0 -
15.10.2017 19:00:00 16,6 14,8 18 10 - - - 1019,5 -
15.10.2017 18:00:00 17,6 15,0 18 10 - - SSW 1019,6 8
15.10.2017 17:00:00 18,6 14,9 18 10 - - SSW 1020,1 9
15.10.2017 16:00:00 18,7 14,9 14 8 - - SSW 1020,6 8
15.10.2017 15:00:00 18,4 14,7 14 8 - - SSW 1021,1 7
15.10.2017 14:00:00 17,2 14,2 14 8 - - SSW 1022,0 6
15.10.2017 13:00:00 15,4 13,3 14 8 - - SSW 1022,8 5
15.10.2017 12:00:00 14,9 13,5 15 8 - - SW 1022,9 5

tt = Température de l'air
td = dewpoint
ff = Vitesse du vent
fx = gusts
dd = Direction du vent
ppp = reduced air pressure
vv = visibility

stations d'obs. à proximité